Elkins, WV

12:10 PM EST on January 23, 2017 (GMT -0500)
Elkins-Randolph County

Weather History for KEKN - April, 2013

Change the Weather History Date:

Friday, April 12, 2013

  Actual Average Record
Temperature  
Mean Temperature 59 °F 49 °F  
Max Temperature 70 °F 62 °F 82 °F (1930)
Min Temperature 48 °F 36 °F 15 °F (1989)
Degree Days  
Heating Degree Days 6 16  
Month to date heating degree days 181 218  
Since 1 July heating degree days 5355 5319  
Cooling Degree Days 0 0  
Month to date cooling degree days 0 0  
Year to date cooling degree days 0 0  
Growing Degree Days 7 (Base 50)    
Moisture  
Dew Point 48 °F    
Average Humidity 66    
Maximum Humidity 93    
Minimum Humidity 39    
Precipitation  
Precipitation 0.95 in 0.13 in 1.56 in (2011)
Month to date precipitation 1.12 1.51  
Year to date precipitation 10.97 11.80  
Snow  
Snow 0.00 in - - ()
Month to date snowfall 0.0  
Since 1 September snowfall 77.5  
Snow Depth 0.00 in    
Sea Level Pressure  
Sea Level Pressure 29.68 in    
Wind  
Wind Speed 8 mph (WSW)    
Max Wind Speed 20 mph    
Max Gust Speed 30 mph    
Visibility 8 miles    
Events Rain    
T = Trace of Precipitation, MM = Missing Value Source: NWS Daily Summary

Daily Weather History Graph

Daily Weather History Graph

Search for Another Location

Airport or City:

Trip Planner

Search our weather history database for the weather conditions in past years. The results will help you decide how hot, cold, wet, or windy it might be!

Date:

Astronomy

Apr. 12, 2013 Rise Set
Actual Time 6:47 AM EDT 7:53 PM EDT
Civil Twilight 6:19 AM EDT 8:21 PM EDT
Nautical Twilight 5:47 AM EDT 8:54 PM EDT
Astronomical Twilight 5:13 AM EDT 9:28 PM EDT
Moon 7:56 AM EDT (4/12) 10:21 PM EDT (4/12)
Length of Visible Light 14h 01m
Length of Day
13h 06m
Waxing Crescent, 5% of the Moon is Illuminated
Apr 12
Waxing Crescent
Apr 18
First Quarter
Apr 25
Full
May 2
Last Quarter
May 9
New

Hourly Weather History & Observations

Time (EDT) Temp. Dew Point Humidity Pressure Visibility Wind Dir Wind Speed Gust Speed Precip Events Conditions
12:51 AM 70.0 °F 50.0 °F 49% 29.64 in 10.0 mi South 10.4 mph 19.6 mph N/A   Scattered Clouds
1:51 AM 69.1 °F 53.1 °F 57% 29.63 in 10.0 mi South 10.4 mph - 0.00 in Rain Light Rain
2:51 AM 62.1 °F 59.0 °F 90% 29.62 in 2.5 mi Calm Calm - 0.20 in Rain Heavy Rain
3:01 AM 62.6 °F 55.4 °F 77% 29.66 in 4.0 mi SE 9.2 mph 21.9 mph 0.03 in Rain Rain
3:51 AM 60.1 °F 55.9 °F 86% 29.60 in 7.0 mi Variable 3.5 mph - 0.17 in Rain Light Rain
4:09 AM 60.8 °F 55.4 °F 82% 29.65 in 2.5 mi West 12.7 mph 29.9 mph 0.06 in Rain Heavy Rain
4:17 AM 60.8 °F 55.4 °F 82% 29.66 in 3.0 mi West 11.5 mph 21.9 mph 0.14 in Rain Heavy Rain
4:51 AM 60.1 °F 55.9 °F 86% 29.65 in 4.0 mi SSW 8.1 mph - 0.29 in Rain Heavy Rain
5:51 AM 59.0 °F 55.9 °F 90% 29.59 in 6.0 mi East 4.6 mph - 0.17 in Rain Rain
6:51 AM 57.0 °F 55.0 °F 93% 29.58 in 10.0 mi Calm Calm - 0.03 in   Mostly Cloudy
7:51 AM 57.9 °F 55.9 °F 93% 29.60 in 10.0 mi Calm Calm - N/A   Overcast
8:51 AM 60.1 °F 54.0 °F 80% 29.61 in 10.0 mi SSE 4.6 mph - N/A   Overcast
9:51 AM 61.0 °F 55.0 °F 81% 29.63 in 3.0 mi West 8.1 mph - 0.03 in Rain Light Rain
10:02 AM 60.8 °F 55.4 °F 82% 29.66 in 2.5 mi West 8.1 mph 17.3 mph 0.05 in Rain Rain
10:11 AM 60.8 °F 53.6 °F 77% 29.67 in 7.0 mi WSW 11.5 mph 18.4 mph 0.06 in Rain Light Rain
10:51 AM 62.1 °F 54.0 °F 75% 29.65 in 10.0 mi WSW 11.5 mph 18.4 mph 0.06 in   Overcast
11:51 AM 64.0 °F 54.0 °F 70% 29.66 in 10.0 mi WSW 10.4 mph 23.0 mph 0.00 in   Partly Cloudy
12:51 PM 63.0 °F 51.1 °F 65% 29.68 in 10.0 mi West 11.5 mph 21.9 mph N/A   Mostly Cloudy
1:51 PM 63.0 °F 51.1 °F 65% 29.67 in 10.0 mi WNW 10.4 mph 20.7 mph N/A   Mostly Cloudy
2:51 PM 64.9 °F 46.0 °F 50% 29.68 in 10.0 mi SW 15.0 mph 25.3 mph N/A   Partly Cloudy
3:51 PM 66.0 °F 44.1 °F 45% 29.67 in 10.0 mi WSW 12.7 mph 24.2 mph N/A   Mostly Cloudy
4:51 PM 64.9 °F 41.0 °F 42% 29.67 in 10.0 mi WNW 12.7 mph 20.7 mph N/A   Mostly Cloudy
5:51 PM 63.0 °F 39.9 °F 43% 29.70 in 10.0 mi West 12.7 mph 24.2 mph N/A   Clear
6:51 PM 60.1 °F 36.0 °F 41% 29.74 in 10.0 mi NW 11.5 mph - N/A   Clear
7:51 PM 55.9 °F 34.0 °F 44% 29.77 in 10.0 mi West 6.9 mph - N/A   Partly Cloudy
8:51 PM 54.0 °F 33.1 °F 45% 29.81 in 10.0 mi NW 11.5 mph - N/A   Mostly Cloudy
9:51 PM 50.0 °F 32.0 °F 50% 29.88 in 10.0 mi NNW 11.5 mph 20.7 mph N/A   Overcast
10:51 PM 48.9 °F 30.9 °F 50% 29.89 in 10.0 mi West 3.5 mph - N/A   Overcast
11:51 PM 48.0 °F 30.0 °F 50% 29.88 in 10.0 mi West 4.6 mph - N/A   Overcast